Regional Weather Roundup
Issued by NWS

Current Version | Previous Version | Text Only | Print | Product List | Glossary On
Versions: 1 2 3 4 5 6 7 8 9 10 11 12 13 14 15 16 17 18 19 20 21 22 23 24 25 26 27 28 29 30 31 32 33 34 35 36 37 38 39 40 41 42 43 44 45 46 47 48 49 50
000
ASUS43 KDTX 312010
RWRMI
MICHIGAN HOURLY REGIONAL WEATHER ROUNDUP
NATIONAL WEATHER SERVICE DETROIT/PONTIAC MI
400 PM EDT TUE MAY 31 2016

NOTE: "FAIR" INDICATES FEW OR NO CLOUDS BELOW 12,000 FEET WITH NO
SIGNIFICANT WEATHER AND/OR OBSTRUCTION TO VISIBILITY.

MIZ047>049-052>055-059>063-066>070-074>076-081>083-312100-
SOUTHEAST LOWER MICHIGAN

CITY           SKY/WX    TMP DP  RH WIND       PRES   REMARKS
ADRIAN         CLOUDY    83  44  25 SE9G17    30.04S
ALMA           MOSUNNY   79  49  34 E3        30.05F
ANN ARBOR      CLOUDY    79  49  34 E8        30.04S
BAD AXE        SUNNY     66  51  57 E7        30.11F
CARO           MOSUNNY   77  56  47 E8        30.06F
DETROIT CITY   PTSUNNY   79  49  34 NE7       30.05S
DETROIT        CLOUDY    81  45  28 E10       30.05S
FLINT          MOSUNNY   83  53  35 E8        30.05F
GROSSE ILE     CLOUDY    73  61  64 S7        30.04R
HILLSDALE      MOSUNNY   82  30  15 NE7       30.04F
HOWELL         MOSUNNY   83  45  25 NE6       30.04F

CITY           SKY/WX    TMP DP  RH WIND       PRES   REMARKS
JACKSON        CLOUDY    79  48  33 E5        30.04F
LAMBERTVILLE   PTSUNNY   81  51  35 E7        30.04F
LANSING        MOSUNNY   81  51  35 E12       30.04F
LAPEER         FAIR      77  52  41 E3        30.06F
MASON          MOSUNNY   82  48  30 SE6       30.04S
MONROE         PTSUNNY   77  56  48 E5        30.04S
MT. CLEMENS    PTSUNNY   75  57  52 E12       30.05S
PONTIAC        PTSUNNY   82  49  31 CALM      30.04S
PORT HOPE        N/A     56  50  80 NE7       30.11S
PORT HURON     MOSUNNY   64  54  68 N7        30.10R
TRI CITIES     MOSUNNY   77  56  48 NE10      30.07F
MIDLAND        FAIR      74  57  56 E10       30.07S
TROY           PTSUNNY   81  46  29 E3        30.07S
SAGINAW HB     MOSUNNY   77  54  44 NE9G18    30.05F HAZE
$$
MIZ043>046-050>051-056>058-064>065-071>073-077>080-312100-
SOUTHWEST LOWER MICHIGAN

CITY           SKY/WX    TMP DP  RH WIND       PRES   REMARKS
BATTLE CREEK   CLOUDY    81  47  30 SE10      30.03F
BENTON HARBOR  MOSUNNY   83  51  33 SE8       29.98F
BIG RAPIDS     SUNNY     79  53  40 S3        30.03F
COLDWATER      SUNNY     82  46  29 NE9       30.02F
FREMONT        FAIR      82  49  30 E14       30.01F
HOLLAND        MOSUNNY   86  48  26 SE13G18   30.00F
GRAND RAPIDS   PTSUNNY   85  48  27 E9        30.02F
IONIA          FAIR      81  47  29 E10G16    30.03F
KALAMAZOO      CLOUDY    82  46  28 E7G20     30.02F
LUDINGTON      SUNNY     80  58  48 W3        30.01F
MARSHALL       CLOUDY    81  45  27 E8        30.03F
MOUNT PLEASANT MOSUNNY   80  51  36 E6        30.04S
MUSKEGON       MOSUNNY   86  47  25 E17       30.00F
SOUTH HAVEN    MOSUNNY   83  45  26 SE9       29.99F
$$
MIZ016>042-312100-
NORTHERN LOWER MICHIGAN

CITY           SKY/WX    TMP DP  RH WIND       PRES   REMARKS
ALPENA         SUNNY     66  46  48 E13       30.12R
BEAVER ISLAND  SUNNY     67  48  50 E10G17    30.07F
BELLAIRE       SUNNY     81  44  27 E8        30.03F
CADILLAC       CLOUDY    79  52  39 SE5       30.05S
CHARLEVOIX     SUNNY     70  55  59 N5        30.09S
FRANKFORT      SUNNY     80  56  44 NW6       30.01F
GAYLORD        SUNNY     76  43  30 VRB5      30.08S
GRAYLING       SUNNY     81  47  30 N5        30.06F
HARBOR SPRINGS SUNNY     71  48  43 E10       30.08S
HOUGHTON LAKE  MOSUNNY   79  49  34 W7        30.05F
MANISTEE       SUNNY     79  54  41 NW8       30.02F
OSCODA         SUNNY     62  44  52 E9G16     30.12S
PELLSTON       SUNNY     72  45  37 SE9       30.09S
ROGERS CITY    SUNNY     60  46  61 E6        30.13S
TRAVERSE CITY  MOSUNNY   71  55  56 NE3       30.03F
$$
MIZ007>008-015-312100-
EASTERN UPPER MICHIGAN

CITY           SKY/WX    TMP DP  RH WIND       PRES   REMARKS
KINROSS          N/A     70  45  40 SE6       30.09F
MACKINAC ISLAN SUNNY     62  44  51 E7G18     30.10F
NEWBERRY       SUNNY     73  50  44 S6        30.07F HAZE
S. S. MARIE    SUNNY     70  47  43 SE6       30.07F
MUNISING         N/A     53  46  77 NE13      30.06F
$$
MIZ004>006-011>014-085-312100-
CENTRAL UPPER MICHIGAN

CITY           SKY/WX    TMP DP  RH WIND       PRES   REMARKS
MANISTIQUE     SUNNY     67  47  49 SE9G16    30.07F
ESCANABA       SUNNY     64  48  55 SE8       30.06F
MENOMINEE        N/A    N/A N/A N/A MISG        N/A
SAWYER-GWINN   PTSUNNY   63  46  55 NE9       30.05F
$$
MIZ001>003-009>011-084-312100-
WESTERN UPPER MICHIGAN

CITY           SKY/WX    TMP DP  RH WIND       PRES   REMARKS
IRON MOUNTAIN  PTSUNNY   71  46  40 SE13      30.02F
HOUGHTON       CLOUDY    47  39  74 E16G26    30.03F
COPPER HARBOR    N/A     51  39  63 S7        30.06F
IRONWOOD       CLOUDY    70  55  60 SE9G16    29.87
$$

ABBREVIATIONS USED IN REMARKS
   TC - TEMPERATURE IN CELSIUS
  WCI - WIND CHILL INDEX
   HX - HEAT INDEX
  VSB - VISIBILITY




USA.gov is the U.S. government's official web portal to all federal, state and local government web resources and services.